N124TL KUNV-KELM

Flight info

Callsign N124TL
Flight time 0h 35m
Altitude 5500
Route VFR NORTH EAST
Aircraft BE58/L-VGD/C

Departure

Time 2026-05-04 00:30
Airport State College Regional Airport (KUNV)

Arrival

Time 2026-05-04 01:05
Airport Elmira Corning Regional Airport (KELM)
Time Latitude Longitude Altitude Speed Heading
2026-05-04 00:24 40.84874 -77.85394 1211 ft 0 kts 60°
2026-05-04 00:28 40.84895 -77.85334 1211 ft 11 kts 82°
2026-05-04 00:28 40.84883 -77.85208 1211 ft 23 kts 56°
2026-05-04 00:28 40.84998 -77.85010 1212 ft 30 kts 53°
2026-05-04 00:29 40.85113 -77.84808 1210 ft 11 kts 62°
2026-05-04 00:29 40.85099 -77.84729 1209 ft 9 kts 131°
2026-05-04 00:29 40.85049 -77.84687 1209 ft 14 kts 206°
2026-05-04 00:29 40.84817 -77.85078 1218 ft 91 kts 234°
2026-05-04 00:30 40.84380 -77.85809 1522 ft 110 kts 236°
2026-05-04 00:30 40.83911 -77.86655 1883 ft 120 kts 240°
2026-05-04 00:30 40.83820 -77.87732 2235 ft 126 kts 287°
2026-05-04 00:30 40.84423 -77.88598 2592 ft 138 kts 322°
2026-05-04 00:31 40.85302 -77.89211 2953 ft 143 kts 327°
2026-05-04 00:31 40.86184 -77.89774 3375 ft 140 kts 329°
2026-05-04 00:31 40.87177 -77.89844 3785 ft 150 kts
2026-05-04 00:31 40.88184 -77.89451 4210 ft 150 kts
2026-05-04 00:32 40.89150 -77.89000 4606 ft 149 kts 10°
2026-05-04 00:32 40.90123 -77.88520 4919 ft 154 kts 11°
2026-05-04 00:32 40.91221 -77.87974 4822 ft 175 kts 12°
2026-05-04 00:32 40.92361 -77.87384 4803 ft 176 kts 13°
2026-05-04 00:33 40.93514 -77.86787 4798 ft 176 kts 13°
2026-05-04 00:33 40.95811 -77.85599 4798 ft 175 kts 13°
2026-05-04 00:33 40.96952 -77.85010 4797 ft 175 kts 13°
2026-05-04 00:34 40.98089 -77.84423 4794 ft 175 kts 13°
2026-05-04 00:34 40.99228 -77.83834 4797 ft 175 kts 12°
2026-05-04 00:34 41.00363 -77.83248 4800 ft 175 kts 13°
2026-05-04 00:34 41.01488 -77.82665 4797 ft 175 kts 13°
2026-05-04 00:35 41.02638 -77.82071 4790 ft 175 kts 13°
2026-05-04 00:35 41.03767 -77.81486 4786 ft 175 kts 13°
2026-05-04 00:35 41.04911 -77.80894 4783 ft 176 kts 13°
2026-05-04 00:35 41.06057 -77.80300 4778 ft 176 kts 13°
2026-05-04 00:36 41.07218 -77.79699 4781 ft 176 kts 13°
2026-05-04 00:36 41.08358 -77.79107 4783 ft 176 kts 13°
2026-05-04 00:36 41.09491 -77.78520 4789 ft 176 kts 13°
2026-05-04 00:36 41.10635 -77.77926 4794 ft 175 kts 12°
2026-05-04 00:37 41.11735 -77.77356 4797 ft 175 kts 13°
2026-05-04 00:37 41.12879 -77.76762 4798 ft 175 kts 13°
2026-05-04 00:37 41.13960 -77.76200 4795 ft 175 kts 12°
2026-05-04 00:37 41.15056 -77.75631 4797 ft 175 kts 13°
2026-05-04 00:38 41.16137 -77.75069 4796 ft 175 kts 13°
2026-05-04 00:38 41.17274 -77.74478 4790 ft 175 kts 13°
2026-05-04 00:38 41.18419 -77.73882 4785 ft 175 kts 13°
2026-05-04 00:38 41.19553 -77.73292 4780 ft 176 kts 13°
2026-05-04 00:39 41.20705 -77.72693 4777 ft 175 kts 13°
2026-05-04 00:39 41.21850 -77.72097 4777 ft 175 kts 13°
2026-05-04 00:39 41.22986 -77.71505 4780 ft 175 kts 13°
2026-05-04 00:39 41.24113 -77.70918 4784 ft 175 kts 13°
2026-05-04 00:40 41.24876 -77.70520 4779 ft 175 kts 13°
2026-05-04 00:40 41.26384 -77.69733 4777 ft 175 kts 13°
2026-05-04 00:40 41.27524 -77.69138 4781 ft 175 kts 12°
2026-05-04 00:40 41.28667 -77.68542 4775 ft 175 kts 13°
2026-05-04 00:41 41.29804 -77.67948 4778 ft 175 kts 13°
2026-05-04 00:41 41.30944 -77.67352 4769 ft 175 kts 13°
2026-05-04 00:41 41.32084 -77.66756 4772 ft 174 kts 12°
2026-05-04 00:41 41.33214 -77.66167 4775 ft 175 kts 13°
2026-05-04 00:42 41.34350 -77.65574 4775 ft 175 kts 13°
2026-05-04 00:42 41.35497 -77.64973 4774 ft 175 kts 12°
2026-05-04 00:42 41.36634 -77.64378 4776 ft 176 kts 13°
2026-05-04 00:42 41.37772 -77.63783 4772 ft 176 kts 13°
2026-05-04 00:43 41.38909 -77.63187 4772 ft 176 kts 13°
2026-05-04 00:43 41.40060 -77.62585 4771 ft 176 kts 13°
2026-05-04 00:43 41.41198 -77.61988 4770 ft 176 kts 13°
2026-05-04 00:43 41.42345 -77.61388 4770 ft 176 kts 13°
2026-05-04 00:44 41.43488 -77.60787 4770 ft 176 kts 13°
2026-05-04 00:44 41.44628 -77.60190 4772 ft 176 kts 13°
2026-05-04 00:44 41.45769 -77.59586 4773 ft 177 kts 15°
2026-05-04 00:44 41.46885 -77.58810 4777 ft 179 kts 20°
2026-05-04 00:45 41.47978 -77.57999 4769 ft 180 kts 21°
2026-05-04 00:45 41.49077 -77.57185 4767 ft 179 kts 21°
2026-05-04 00:45 41.50160 -77.56380 4771 ft 179 kts 21°
2026-05-04 00:45 41.51261 -77.55563 4768 ft 179 kts 21°
2026-05-04 00:46 41.52349 -77.54755 4769 ft 179 kts 20°
2026-05-04 00:46 41.53455 -77.53934 4767 ft 179 kts 21°
2026-05-04 00:46 41.54543 -77.53127 4765 ft 179 kts 21°
2026-05-04 00:46 41.55655 -77.52300 4778 ft 179 kts 21°
2026-05-04 00:47 41.56749 -77.51488 4780 ft 180 kts 21°
2026-05-04 00:47 41.57854 -77.50667 4767 ft 181 kts 21°
2026-05-04 00:47 41.58963 -77.49841 4776 ft 181 kts 21°
2026-05-04 00:47 41.60067 -77.49020 4772 ft 180 kts 21°
2026-05-04 00:48 41.61157 -77.48209 4771 ft 180 kts 20°
2026-05-04 00:48 41.62255 -77.47392 4769 ft 180 kts 21°
2026-05-04 00:48 41.63354 -77.46572 4771 ft 180 kts 21°
2026-05-04 00:48 41.64449 -77.45757 4767 ft 180 kts 21°
2026-05-04 00:49 41.65534 -77.44948 4768 ft 180 kts 21°
2026-05-04 00:49 41.66639 -77.44124 4764 ft 180 kts 20°
2026-05-04 00:49 41.67738 -77.43304 4763 ft 180 kts 21°
2026-05-04 00:49 41.68824 -77.42493 4764 ft 180 kts 21°
2026-05-04 00:50 41.69910 -77.41594 4763 ft 183 kts 28°
2026-05-04 00:50 41.70946 -77.40584 4761 ft 183 kts 29°
2026-05-04 00:50 41.71978 -77.39567 4760 ft 184 kts 29°
2026-05-04 00:50 41.73010 -77.38551 4757 ft 184 kts 28°
2026-05-04 00:51 41.74052 -77.37525 4754 ft 184 kts 28°
2026-05-04 00:51 41.75083 -77.36511 4751 ft 184 kts 29°
2026-05-04 00:51 41.76112 -77.35498 4757 ft 183 kts 29°
2026-05-04 00:51 41.77119 -77.34506 4757 ft 183 kts 29°
2026-05-04 00:52 41.78130 -77.33511 4753 ft 183 kts 30°
2026-05-04 00:52 41.79158 -77.32500 4750 ft 183 kts 29°
2026-05-04 00:52 41.80067 -77.31602 4748 ft 183 kts 29°
2026-05-04 00:52 41.81088 -77.30596 4746 ft 183 kts 30°
2026-05-04 00:53 41.82114 -77.29583 4739 ft 182 kts 29°
2026-05-04 00:53 41.83144 -77.28567 4745 ft 182 kts 29°
2026-05-04 00:53 41.84174 -77.27551 4743 ft 183 kts 29°
2026-05-04 00:53 41.85204 -77.26534 4738 ft 183 kts 29°
2026-05-04 00:54 41.86223 -77.25528 4732 ft 183 kts 30°
2026-05-04 00:54 41.87155 -77.24342 4743 ft 189 kts 51°
2026-05-04 00:54 41.87860 -77.22827 4734 ft 191 kts 55°
2026-05-04 00:54 41.88557 -77.21284 4737 ft 191 kts 54°
2026-05-04 00:55 41.89235 -77.19775 4737 ft 191 kts 54°
2026-05-04 00:55 41.89929 -77.18231 4734 ft 191 kts 54°
2026-05-04 00:55 41.90616 -77.16706 4733 ft 191 kts 54°
2026-05-04 00:55 41.91297 -77.15189 4735 ft 191 kts 54°
2026-05-04 00:56 41.91989 -77.13650 4738 ft 190 kts 54°
2026-05-04 00:56 41.92683 -77.12107 4736 ft 190 kts 54°
2026-05-04 00:56 41.93366 -77.10596 4742 ft 190 kts 54°
2026-05-04 00:56 41.94050 -77.09087 4731 ft 190 kts 54°
2026-05-04 00:57 41.94762 -77.07532 4479 ft 198 kts 54°
2026-05-04 00:57 41.95506 -77.05918 4236 ft 202 kts 54°
2026-05-04 00:57 41.96245 -77.04324 3999 ft 204 kts 54°
2026-05-04 00:57 41.97157 -77.02890 3757 ft 197 kts 29°
2026-05-04 00:58 41.98323 -77.01930 3517 ft 195 kts 23°
2026-05-04 00:58 41.99522 -77.01041 3282 ft 195 kts 22°
2026-05-04 00:58 42.00711 -77.00179 3047 ft 194 kts 22°
2026-05-04 00:58 42.01894 -76.99329 2787 ft 192 kts 21°
2026-05-04 00:59 42.03073 -76.98480 2694 ft 184 kts 21°
2026-05-04 00:59 42.04183 -76.97678 2719 ft 179 kts 22°
2026-05-04 00:59 42.05257 -76.96903 2728 ft 170 kts 21°
2026-05-04 00:59 42.06289 -76.96159 2729 ft 165 kts 20°
2026-05-04 01:00 42.07283 -76.95444 2733 ft 160 kts 20°
2026-05-04 01:00 42.08263 -76.94719 2604 ft 165 kts 21°
2026-05-04 01:00 42.09290 -76.93913 2400 ft 173 kts 24°
2026-05-04 01:00 42.10264 -76.93112 1995 ft 165 kts 25°
2026-05-04 01:01 42.11250 -76.92372 1982 ft 159 kts 26°
2026-05-04 01:01 42.12018 -76.91593 1920 ft 161 kts 28°
2026-05-04 01:01 42.12862 -76.90874 1869 ft 164 kts 28°
2026-05-04 01:01 42.13729 -76.89964 1786 ft 171 kts 39°
2026-05-04 01:02 42.14401 -76.88749 1776 ft 171 kts 56°
2026-05-04 01:02 42.14926 -76.87384 1977 ft 156 kts 63°
2026-05-04 01:02 42.15176 -76.85966 1951 ft 160 kts 98°
2026-05-04 01:02 42.15056 -76.84444 1778 ft 156 kts 97°
2026-05-04 01:03 42.15260 -76.83158 1642 ft 131 kts 41°
2026-05-04 01:03 42.15945 -76.82945 1766 ft 90 kts 320°
2026-05-04 01:03 42.16086 -76.83686 1617 ft 95 kts 259°
2026-05-04 01:03 42.15942 -76.84583 1460 ft 100 kts 262°
2026-05-04 01:04 42.15879 -76.85513 1314 ft 99 kts 267°
2026-05-04 01:04 42.15842 -76.86382 1299 ft 90 kts 266°
2026-05-04 01:04 42.15807 -76.87237 1165 ft 93 kts 270°
2026-05-04 01:04 42.15801 -76.88121 1020 ft 94 kts 269°
2026-05-04 01:05 42.15794 -76.88949 944 ft 74 kts 268°
2026-05-04 01:05 42.15789 -76.89520 943 ft 48 kts 269°
2026-05-04 01:05 42.15787 -76.89887 941 ft 31 kts 270°
2026-05-04 01:05 42.15802 -76.90057 940 ft 9 kts 252°
2026-05-04 01:06 42.15791 -76.89980 941 ft 13 kts 70°
2026-05-04 01:06 42.15913 -76.89746 943 ft 41 kts 52°
2026-05-04 01:06 42.16055 -76.89484 945 ft 11 kts 318°
2026-05-04 01:06 42.16046 -76.89527 945 ft 6 kts 235°
2026-05-04 01:07 42.16000 -76.89664 944 ft 20 kts 294°
2026-05-04 01:07 42.16061 -76.89758 944 ft 0 kts 313°